COSMOS 2251 DEB, 35645

Orbit data source: Space-Track

COSMOS 2251 DEB, 35645 is space debris in LEO originally from a launch on Wed, 16 Jun 1993 UTC launched from the Plesetsk Missile And Space Complex (PKMTR). The debris from Iridium 33, an American commercial communications satellite, has been tracked extensively since its accidental collision with the defunct Russian satellite Cosmos 2251 in 2009. This event, occurring at high speed in low Earth orbit (LEO), generated thousands of pieces of space debris, significantly increasing the risk of further collisions. The Iridium 33 debris cloud has impacted space traffic management and orbital debris mitigation strategies, making it a subject of ongoing study in space situational awareness.

Loading next visibility...
Identifier
35645, 1993-036ANL
Orbit
LEO
Country
Flag of CISCIS
Related business
Manufacturer
Unknown
Mission
Spacecraft
Bus & Motor
Unknown
Mass
Unknown
Launch date (UTC)
1993-06-16 (32 years ago)
Launch vehicle
Unknown
Launch site
Plesetsk Missile And Space Complex (PKMTR)
Object type
Payload
Rocket body
Debris
Shape & HBR
Unknown shape, 0.1 m
Radar Cross Section
Small (<0.1 m²)

Expand to show TLE details & history
Last TLE update: 2 days ago

TLE from 2 days ago
0 COSMOS 2251 DEB
1 35645U 93036ANL 25300.39554784  .00005917  00000-0  16620-2 0  9998
2 35645  73.9642 174.4648 0068468 339.5660  20.2759 14.44770935861020
Epoch: 2025-10-27T09:29Z
TLE epoch observation values (Epoch: 2025-10-27T09:29:35.333Z)
Latitude
-0.00003°
Longitude
-3.93043°
Altitude
699.695 km
Speed
7.53 km/s
True Right ascension
11h 37m 51s
True Declination
0° 00' 00"
Sunlit
Object was in daylight at epoch
Visualization orbit readout
Latitude
Unknown
Longitude
Unknown
Altitude
Unknown
Speed
Unknown
Apparent Right ascension
Unknown
Apparent Declination
Unknown
Sunlit
N/A
Visualization observer readout
Local Sidereal Time
12:39:31
Azimuth
Unknown
Elevation
Unknown
Doppler factor
Unknown
Orbital elements
Apogee altitude
789.138 km
Perigee altitude
691.66 km
Semi-major axis
7,118.536 km
Eccentricity
0.00685
Inclination
73.9642°
RAAN
174.4648°
Arg. of periapsis
339.566°
True anomaly
20.54999°
Mean anomaly
20.2759°
Eccentric anomaly
20.41272°
Mean motion
3.61374 °/min
Orbital period
99.62 mins
BSTAR
0.001662

Documentation

Showing up to 5 results
|